Stations météo

réclame
Mon MeteoGroup
Rostherne No 2, Grande-Bretagne (3351): Température de l'air & dewpoint: 14.10.2018 14:00:00 - 20.10.2018 14:00:00 (BST)Rostherne No 2, Grande-Bretagne (3351): Vitesse du vent: 14.10.2018 14:00:00 - 20.10.2018 14:00:00 (BST)Rostherne No 2, Grande-Bretagne (3351): Direction du vent: 14.10.2018 14:00:00 - 20.10.2018 14:00:00 (BST)Rostherne No 2, Grande-Bretagne (3351): reduced air pressure: 14.10.2018 14:00:00 - 20.10.2018 14:00:00 (BST)Rostherne No 2, Grande-Bretagne (3351): visibility: 14.10.2018 14:00:00 - 20.10.2018 14:00:00 (BST)Rostherne No 2, Grande-Bretagne (3351): Ensoleillement: 14.10.2018 14:00:00 - 20.10.2018 14:00:00 (BST)Rostherne No 2, Grande-Bretagne (3351): Quantités de précipitations: 14.10.2018 14:00:00 - 20.10.2018 14:00:00 (BST)
Date & Time tt [°C] td [°C] ff [km/h] ff [knt] dd ppp [hPa] vv [km] sd [min] rr [mm]
20.10.2018 14:00:00 16,8 10,8 8 4 SW 1029,6 30 60 0,0
20.10.2018 13:00:00 14,5 11,0 9 5 SSW 1030,0 19 12 0,0
20.10.2018 12:00:00 13,0 10,4 9 5 SSW 1030,3 19 0 0,0
20.10.2018 11:00:00 12,1 10,7 9 5 S 1030,4 11 0 -
20.10.2018 10:00:00 10,9 10,7 5 3 SSE 1030,4 8 0 0,0
20.10.2018 09:00:00 9,0 9,0 4 2 SE 1030,1 5 0 0,0
20.10.2018 08:00:00 8,3 8,3 4 2 SSE 1029,7 4,9 0 0,0
20.10.2018 07:00:00 6,9 6,9 5 3 SSE 1029,5 2,8 0 0,0
20.10.2018 06:00:00 4,6 4,4 8 4 ESE 1029,2 0,2 0 0,0
20.10.2018 05:00:00 5,7 5,5 8 4 SE 1029,2 1,3 0 0,0
20.10.2018 04:00:00 6,5 6,4 5 3 SE 1029,0 1,8 0 0,0
20.10.2018 03:00:00 5,9 5,6 4 2 SSE 1029,0 1,1 0 0,0
20.10.2018 02:00:00 7,0 6,9 5 3 SE 1028,7 3,5 0 0,0
20.10.2018 01:00:00 6,6 6,5 5 3 SE 1028,5 3,3 - 0,0
20.10.2018 00:00:00 6,6 6,4 5 3 SE 1028,4 2,3 0 0,0
19.10.2018 23:00:00 7,0 6,7 8 4 SSE 1028,1 3,1 0 0,0
19.10.2018 22:00:00 7,5 7,0 4 2 SE 1028,0 4,5 0 0,0
19.10.2018 21:00:00 8,3 7,5 2 1 SSE 1027,6 10 0 0,0
19.10.2018 20:00:00 8,5 7,5 5 3 SSW 1026,9 13 0 0,0
19.10.2018 19:00:00 9,5 7,7 5 3 WNW 1026,6 18 0 0,0
19.10.2018 18:00:00 11,2 7,8 9 5 W 1026,0 20 0 0,0
19.10.2018 17:00:00 14,1 9,5 9 5 W 1025,9 17 30 0,0
19.10.2018 16:00:00 15,2 9,4 9 5 W 1025,5 23 18 0,0
19.10.2018 15:00:00 14,5 8,8 8 4 SW 1025,5 17 42 0,0
19.10.2018 14:00:00 15,1 9,2 9 5 SW 1025,5 19 60 0,0
19.10.2018 13:00:00 13,6 9,3 11 6 S 1025,6 22 60 0,0
19.10.2018 12:00:00 11,5 8,4 9 5 S 1026,2 10 42 0,0
19.10.2018 11:00:00 9,5 7,1 11 6 S 1026,2 10 36 0,0
19.10.2018 10:00:00 8,4 7,1 4 2 W 1026,5 11 54 0,0
19.10.2018 09:00:00 5,5 5,1 5 3 SE 1025,8 8 12 0,0
19.10.2018 08:00:00 6,3 6,1 5 3 S 1025,7 13 0 0,0
19.10.2018 07:00:00 5,6 5,6 9 5 S 1025,6 12 0 0,0
19.10.2018 06:00:00 2,6 2,5 5 3 SSE 1025,8 5 0 0,0
19.10.2018 05:00:00 2,9 2,8 5 3 SSE 1025,8 6 0 0,0
19.10.2018 04:00:00 2,7 2,6 5 3 SE 1026,4 9 0 0,0
19.10.2018 03:00:00 1,2 1,0 4 2 SSE 1026,8 4,9 0 0,0
19.10.2018 02:00:00 1,7 1,5 5 3 ESE 1026,8 9 0 0,0
19.10.2018 01:00:00 1,6 1,4 2 1 E 1027,5 4,5 - 0,0
19.10.2018 00:00:00 2,3 2,0 4 2 SE 1027,6 3,7 0 0,0
18.10.2018 23:00:00 2,9 2,4 8 4 SE 1027,7 7 0 0,0
18.10.2018 22:00:00 4,0 3,3 4 2 ESE 1027,6 13 0 0,0
18.10.2018 21:00:00 5,8 4,9 5 3 SE 1027,5 24 0 0,0
18.10.2018 20:00:00 5,4 4,6 2 1 S 1027,7 25 0 0,0
18.10.2018 19:00:00 6,8 4,9 0 0 N 1027,6 29 0 0,0
18.10.2018 18:00:00 10,9 3,0 2 1 NW 1027,5 45 54 0,0
18.10.2018 17:00:00 12,9 2,9 4 2 SSW 1027,6 40 60 0,0
18.10.2018 16:00:00 13,6 2,7 5 3 SSW 1028,0 35 60 0,0
18.10.2018 15:00:00 14,4 3,5 4 2 SSE 1028,0 45 60 0,0
18.10.2018 14:00:00 13,9 3,0 2 1 ESE 1028,5 20 60 0,0
18.10.2018 13:00:00 12,2 4,6 4 2 NE 1029,2 24 60 0,0
18.10.2018 12:00:00 10,6 6,9 4 2 NE 1029,7 25 60 0,0
18.10.2018 11:00:00 8,8 8,4 2 1 WSW 1029,9 12 60 0,0
18.10.2018 10:00:00 5,8 5,8 2 1 S 1029,9 7 60 0,2
18.10.2018 09:00:00 2,4 2,4 2 1 E 1029,6 1,4 6 0,0
18.10.2018 08:00:00 1,2 1,2 2 1 SE 1029,2 0,1 0 0,0
18.10.2018 07:00:00 1,4 1,4 4 2 SE 1029,0 0,2 0 0,0
18.10.2018 06:00:00 1,2 1,0 2 1 SE 1028,3 0,2 0 0,0
18.10.2018 05:00:00 1,5 1,4 2 1 N 1028,3 0,2 0 0,0
18.10.2018 04:00:00 2,1 1,9 0 0 N 1027,8 0,2 0 0,0
18.10.2018 03:00:00 3,8 3,8 2 1 W 1027,8 0,7 0 0,0
18.10.2018 02:00:00 3,9 3,7 2 1 WNW 1027,8 0,4 0 0,0
18.10.2018 01:00:00 3,7 3,3 0 0 N 1027,6 0,2 - 0,0
18.10.2018 00:00:00 5,7 5,4 5 3 NW 1027,0 12 0 0,0
17.10.2018 23:00:00 6,2 5,9 2 1 NNW 1026,5 8 0 0,0
17.10.2018 22:00:00 6,7 6,3 4 2 WSW 1026,0 5 0 0,0
17.10.2018 21:00:00 7,7 7,1 8 4 NW 1025,3 12 0 0,0
17.10.2018 20:00:00 9,2 8,3 8 4 NW 1024,5 16 0 0,0
17.10.2018 19:00:00 10,5 8,6 8 4 NNW 1023,4 20 0 0,0
17.10.2018 18:00:00 11,8 8,7 5 3 NW 1022,5 20 24 0,0
17.10.2018 17:00:00 13,6 9,7 16 9 NW 1021,7 19 6 0,0
17.10.2018 16:00:00 14,1 10,2 16 9 NW 1021,1 22 0 0,0
17.10.2018 15:00:00 14,4 10,6 18 10 NW 1020,5 14 6 0,0
17.10.2018 14:00:00 13,7 11,2 5 3 NNW 1020,4 15 6 0,0
17.10.2018 13:00:00 13,9 10,8 8 4 N 1020,1 14 0 0,0
17.10.2018 12:00:00 14,1 10,9 4 2 NNW 1019,6 16 18 0,2
17.10.2018 11:00:00 13,7 11,3 5 3 W 1018,9 13 12 0,0
17.10.2018 10:00:00 12,0 11,9 4 2 W 1018,5 11 6 0,0
17.10.2018 09:00:00 9,9 9,8 2 1 SSW 1017,6 9 0 0,0
17.10.2018 08:00:00 8,1 7,6 5 3 SSE 1016,9 0,4 0 0,0
17.10.2018 07:00:00 9,3 8,7 5 3 SE 1016,3 5 0 0,0
17.10.2018 06:00:00 10,7 10,0 5 3 S 1015,5 12 0 0,0
17.10.2018 05:00:00 11,2 10,4 5 3 SSW 1015,0 19 0 0,0
17.10.2018 04:00:00 11,5 10,3 8 4 SSW 1014,6 29 0 0,0
17.10.2018 03:00:00 11,9 10,0 8 4 SSW 1014,5 40 0 0,0
17.10.2018 02:00:00 12,2 10,1 9 5 SSW 1014,6 45 0 0,0
17.10.2018 01:00:00 12,1 10,2 9 5 S 1014,5 40 - 0,0
17.10.2018 00:00:00 11,8 10,3 11 6 S 1014,3 35 0 0,2
16.10.2018 23:00:00 11,8 10,3 15 8 S 1014,2 7 0 0,0
16.10.2018 22:00:00 11,9 10,6 13 7 S 1014,2 10 0 0,4
16.10.2018 21:00:00 13,6 10,2 11 6 SSW 1013,9 27 0 0,0
16.10.2018 20:00:00 13,8 10,9 9 5 S 1013,5 50 0 0,0
16.10.2018 19:00:00 13,8 10,7 11 6 SSW 1013,4 50 0 0,0
16.10.2018 18:00:00 14,7 11,3 16 9 SSW 1013,1 50 6 0,0
16.10.2018 17:00:00 15,4 12,6 9 5 S 1013,0 18 0 0,0
16.10.2018 16:00:00 15,6 12,7 11 6 SSW 1013,2 15 0 0,0
16.10.2018 15:00:00 15,9 13,1 11 6 S 1013,1 14 0 0,0
16.10.2018 14:00:00 15,5 12,8 9 5 SSW 1013,3 17 0 0,0
16.10.2018 13:00:00 14,8 12,4 13 7 S 1013,3 14 0 0,0
16.10.2018 12:00:00 14,0 11,9 15 8 S 1013,6 11 0 0,0
16.10.2018 11:00:00 13,2 11,5 13 7 S 1013,9 8 0 0,0
16.10.2018 10:00:00 12,6 11,1 15 8 S 1014,0 7 0 0,0
16.10.2018 09:00:00 11,8 10,7 11 6 S 1014,2 5 0 0,0
16.10.2018 08:00:00 11,6 10,2 13 7 S 1013,8 6 0 0,0
16.10.2018 07:00:00 11,6 10,2 13 7 S 1013,5 7 0 0,0
16.10.2018 06:00:00 11,7 10,2 11 6 S 1013,9 8 0 0,0
16.10.2018 05:00:00 11,4 10,2 5 3 S 1014,0 12 0 0,0
16.10.2018 04:00:00 10,5 9,4 2 1 SE 1014,1 15 0 0,0
16.10.2018 03:00:00 10,5 9,3 0 0 N 1014,3 11 0 0,0
16.10.2018 02:00:00 10,4 9,1 2 1 W 1014,7 18 0 0,0
16.10.2018 01:00:00 10,4 9,1 2 1 SSE 1014,9 16 - 0,0
16.10.2018 00:00:00 10,6 8,4 4 2 E 1015,4 24 0 0,0
15.10.2018 23:00:00 10,6 8,0 5 3 E 1015,4 30 0 0,0
15.10.2018 22:00:00 10,8 7,8 9 5 E 1015,7 45 0 0,0
15.10.2018 21:00:00 10,8 7,2 9 5 ESE 1015,8 50 0 0,0
15.10.2018 20:00:00 10,8 7,6 13 7 SE 1015,5 50 0 0,0
15.10.2018 19:00:00 11,1 8,3 8 4 E 1015,5 45 0 0,0
15.10.2018 18:00:00 11,5 8,3 5 3 ENE 1015,2 50 0 0,0
15.10.2018 17:00:00 11,8 8,7 11 6 ENE 1014,9 27 6 0,0
15.10.2018 16:00:00 12,2 8,7 9 5 ENE 1014,8 28 6 0,2
15.10.2018 15:00:00 11,6 8,5 9 5 ENE 1014,8 23 0 0,0
15.10.2018 14:00:00 11,6 8,2 11 6 NE 1014,5 35 0 0,0
15.10.2018 13:00:00 11,4 7,8 9 5 ENE 1014,4 45 0 0,0
15.10.2018 12:00:00 10,9 7,8 8 4 NE 1014,5 45 0 0,0
15.10.2018 11:00:00 10,0 7,4 8 4 NE 1014,3 26 0 0,0
15.10.2018 10:00:00 9,5 7,1 8 4 NE 1014,5 35 0 0,0
15.10.2018 09:00:00 8,5 7,3 8 4 N 1014,3 29 0 0,0
15.10.2018 08:00:00 7,8 7,0 5 3 N 1013,8 28 0 0,0
15.10.2018 07:00:00 7,2 6,6 8 4 NNW 1013,0 45 0 0,0
15.10.2018 06:00:00 6,7 6,6 8 4 NNW 1012,8 18 0 0,0
15.10.2018 05:00:00 6,5 6,4 8 4 NNW 1012,8 25 0 0,0
15.10.2018 04:00:00 6,0 5,9 5 3 NW 1012,8 10 0 0,0
15.10.2018 03:00:00 5,9 5,9 5 3 NNW 1012,7 16 0 0,0
15.10.2018 02:00:00 5,6 5,6 5 3 NNW 1013,1 10 0 0,0
15.10.2018 01:00:00 3,8 3,7 5 3 NW 1012,7 3,0 - 0,0
15.10.2018 00:00:00 3,8 3,6 5 3 NNW 1012,5 3,0 0 0,0
14.10.2018 23:00:00 4,0 3,8 4 2 N 1012,5 11 0 0,0
14.10.2018 22:00:00 4,0 3,8 2 1 S 1012,5 3,0 0 0,0
14.10.2018 21:00:00 4,3 3,9 0 0 N 1011,7 0,3 0 0,0
14.10.2018 20:00:00 5,9 5,5 2 1 SSE 1011,6 1,5 0 0,0
14.10.2018 19:00:00 6,8 5,5 2 1 E 1011,2 45 0 0,0
14.10.2018 18:00:00 10,0 6,2 4 2 NNE 1010,3 50 30 0,0
14.10.2018 17:00:00 11,5 6,7 9 5 N 1009,7 50 54 0,0
14.10.2018 16:00:00 12,0 8,5 9 5 NNW 1009,2 30 12 0,0
14.10.2018 15:00:00 10,7 8,2 4 2 N 1008,5 40 0 0,0
14.10.2018 14:00:00 10,2 8,6 8 4 ENE 1008,7 35 0 0,0

tt = Température de l'air
td = dewpoint
ff = Vitesse du vent
dd = Direction du vent
ppp = reduced air pressure
vv = visibility
sd = Ensoleillement
rr = Quantités de précipitations

stations d'obs. à proximité